Location: Borotín
(49.5055°N, 14.6142°E)
Time: 12:46:26
(UTC+00:00)

USA 306 - Pass Details

Date: 27 May 2022
Orbit: 545 x 556 km, 54.0° (Epoch: 20 June)

Event Time Altitude Azimuth Distance (km) Brightness Sun altitude
Exits shadow 00:02:22 40° 214° (SW) 826 3.2 -17.8°
Maximum altitude 00:03:41 65° 148° (SSE) 612 2.8 -17.8°
Drops below altitude 10° 00:07:51 10° 67° (ENE) 1,847 6.0 -17.6°
Sets 00:10:06 0° 64° (ENE) 2,747 7.0 -17.5°
